Home > Weather > Grise Fiord > Past weeks

Flag for Canada Past Weather in Grise Fiord, Nunavut, Canada — Yesterday and Last 2 Weeks

Now
36 °F

Chilly.


Feels Like: 27 °F
Forecast: 34 / 36 °F
Wind: 14 mph from Southwest

Location: Kitsissut (Carey Oeer)

Current Time: Jul 1, 2016 at 11:28:39 AM

Latest Report: Jul 1, 2016 at 10:00 AM


Visibility: N/A

Pressure: 29.74 "Hg

Humidity: 91%

Dew Point: 34 °F

Location of Grise FiordLocation

Past Weather in Grise Fiord — Graph

°F

Grise Fiord Temperature Yesterday

Maximum temperature yesterday: 42 °F (at 2:00 AM)
Minimum temperature yesterday: 38 °F (at 4:00 PM)
Average temperature yesterday: 39 °F

High & Low Weather Summary for the Past Weeks

 TemperatureHumidityPressure
High47 °F (Jun 26, 1:00 PM)100% (Jun 16, 9:00 PM)30.08 "Hg (Jun 16, 9:00 PM)
Low27 °F (Jun 17, 11:00 PM)55% (Jun 26, 1:00 PM)29.53 "Hg (Jun 22, 10:00 PM)
Average35 °F89%29.73 "Hg
* Reported Jun 16 9:00 AM — Jul 1 9:00 AM, Grise Fiord, Weather by CustomWeather, © 2016

Note: Actual official high and low records may vary slightly from our data, if they occured in-between our weather recording intervals... More about our weather records

Advertising

Grise Fiord Weather History for the Previous 24 Hours

Scroll right to see more
 ConditionsComfort  
Time TempWeatherWind HumidityBarometerVisibility
9:00 AM
Fri, Jul 1
36 °FChilly.13 mph95%29.71 "HgN/A
8:00 AM36 °FChilly.30 mph96%29.66 "HgN/A
7:00 AM37 °FChilly.35 mph94%29.65 "HgN/A
6:00 AM37 °FChilly.35 mph97%29.69 "HgN/A
5:00 AM37 °FChilly.39 mph95%29.69 "HgN/A
4:00 AM37 °FChilly.32 mph97%29.73 "HgN/A
3:00 AM37 °FChilly.31 mph98%29.77 "HgN/A
2:00 AM37 °FChilly.30 mph96%29.78 "HgN/A
1:00 AM38 °FChilly.30 mph94%29.78 "HgN/A
12:00 AM38 °FChilly.24 mph95%29.80 "HgN/A
11:00 PM
Thu, Jun 30
39 °FChilly.23 mph94%29.81 "HgN/A
10:00 PM39 °FChilly.24 mph93%29.83 "HgN/A
9:00 PM39 °FChilly.26 mph93%29.82 "HgN/A
8:00 PM39 °FChilly.28 mph93%29.83 "HgN/A
7:00 PM38 °FChilly.24 mph96%29.84 "HgN/A
6:00 PM39 °FChilly.25 mph94%29.84 "HgN/A
5:00 PM38 °FChilly.24 mph96%29.85 "HgN/A
4:00 PM38 °FChilly.25 mph98%29.86 "HgN/A
3:00 PM38 °FChilly.24 mph97%29.86 "HgN/A
2:00 PM39 °FChilly.24 mph91%29.86 "HgN/A
1:00 PM39 °FChilly.28 mph92%29.83 "HgN/A
12:00 PM39 °FChilly.28 mph92%29.83 "HgN/A
11:00 AM40 °FChilly.23 mph90%29.82 "HgN/A
Weather by CustomWeather, © 2016

See weather overviewHow to use our weather pages